False Pass, AK

3:36 PM AKDT on July 25, 2016 (GMT -0800)
False Pass

Weather History for PAKF - February, 2013

Change the Weather History Date:

Tuesday, February 19, 2013

  Actual Average (PACD) Record (PACD)
Temperature  
Mean Temperature 32 °F 29 °F  
Max Temperature 37 °F 34 °F 43 °F (1957)
Min Temperature 28 °F 25 °F -1 °F (1974)
Degree Days  
Heating Degree Days 32 36  
Month to date heating degree days 689  
Since 1 July heating degree days 5905  
Cooling Degree Days 0    
Month to date cooling degree days  
Year to date cooling degree days  
Moisture  
Dew Point 30 °F    
Average Humidity 87    
Maximum Humidity 100    
Minimum Humidity 75    
Precipitation  
Precipitation 0.59 in 0.11 in 0.74 in (1974)
Month to date precipitation 2.02  
Year to date precipitation 5.18  
Snow  
Snow 0.00 in 0.40 in 7.40 in (1974)
Month to date snowfall 8.9  
Since 1 July snowfall 48.2  
Snow Depth -    
Sea Level Pressure  
Sea Level Pressure 29.18 in    
Wind  
Wind Speed 18 mph (West)    
Max Wind Speed 58 mph    
Max Gust Speed 81 mph    
Visibility 4 miles    
Events Fog , Rain , Snow    
T = Trace of Precipitation, MM = Missing Value Source: NWS Daily Summary

Daily Weather History Graph

Daily Weather History Graph

Search for Another Location

Airport or City:

Trip Planner

Search our weather history database for the weather conditions in past years. The results will help you decide how hot, cold, wet, or windy it might be!

Date:

Astronomy

Feb. 19, 2013 Rise Set
Actual Time 8:05 AM HST 6:10 PM HST
Civil Twilight 7:28 AM HST 6:47 PM HST
Nautical Twilight 6:46 AM HST 7:29 PM HST
Astronomical Twilight 6:04 AM HST 8:11 PM HST
Moon 12:19 PM HST (2/19) 4:19 AM HST (2/19)
Length of Visible Light 11h 18m
Length of Day
10h 04m
Waxing Gibbous, 69% of the Moon is Illuminated
Feb 19
Waxing Gibbous
Feb 25
Full
Mar 4
Last Quarter
Mar 11
New
Mar 19
First Quarter

Hourly Weather History & Observations

Time (HST) Temp. Windchill Dew Point Humidity Pressure Visibility Wind Dir Wind Speed Gust Speed Precip Events Conditions
1:01 AM 36.0 °F 30.3 °F 34.0 °F 93% 29.59 in 9.0 mi SSW 6.9 mph - 0.08 in Snow Light Snow
2:01 AM 34.0 °F 24.2 °F 33.1 °F 96% 29.53 in 5.0 mi East 15.0 mph 19.6 mph 0.07 in Snow Light Snow
2:32 AM 33.8 °F 29.6 °F 33.8 °F 100% 29.20 in 2.5 mi Variable 4.6 mph - 0.03 in Snow Light Snow
2:45 AM 33.8 °F 27.7 °F 33.8 °F 100% 29.19 in 3.0 mi East 6.9 mph - 0.03 in Snow Light Snow
2:54 AM 33.8 °F - 32.0 °F 93% 29.17 in 2.0 mi Calm Calm - 0.04 in Snow Light Snow
3:01 AM 34.0 °F 29.8 °F 32.0 °F 92% 29.44 in 2.0 mi WSW 4.6 mph - 0.04 in Snow Light Snow
3:33 AM 33.8 °F 29.6 °F 32.0 °F 93% 29.13 in 1.5 mi Variable 4.6 mph - 0.01 in Snow Light Snow
5:47 AM 35.6 °F 22.7 °F 35.6 °F 100% 28.92 in 2.5 mi ENE 28.8 mph 38.0 mph 0.30 in Snow Light Snow
6:01 AM 36.0 °F 23.7 °F 35.1 °F 97% 29.19 in 2.5 mi ENE 26.5 mph 36.8 mph 0.35 in Snow Light Snow
6:06 AM 35.6 °F 23.4 °F 35.6 °F 100% 28.91 in 3.0 mi ENE 25.3 mph 33.4 mph 0.01 in Snow Light Snow
7:01 AM 35.6 °F 29.9 °F 35.6 °F 100% 28.86 in 6.0 mi SSE 6.9 mph - 0.03 in Rain Light Rain
7:37 AM 37.4 °F 32.1 °F 35.6 °F 93% 28.84 in 7.0 mi ESE 6.9 mph - 0.03 in   Overcast
8:01 AM 37.0 °F - 35.1 °F 93% 29.11 in 10.0 mi Calm Calm - 0.03 in   Overcast
9:01 AM 37.0 °F 33.3 °F 36.0 °F 96% 29.12 in 10.0 mi North 4.6 mph - N/A   Overcast
9:21 AM 37.4 °F 31.4 °F 37.4 °F 100% 28.84 in 10.0 mi North 8.1 mph - N/A   Overcast
10:01 AM 37.0 °F 23.0 °F 30.9 °F 79% 29.09 in 3.0 mi WSW 39.1 mph 48.3 mph 0.01 in Rain Light Rain
10:11 AM 37.4 °F 23.0 °F 30.2 °F 75% 28.81 in 2.5 mi WSW 42.6 mph 52.9 mph 0.00 in Rain Light Rain
10:19 AM 35.6 °F 19.8 °F 30.2 °F 81% 28.81 in 1.5 mi WSW 47.2 mph 59.8 mph 0.00 in Rain Light Rain
10:23 AM 35.6 °F 19.7 °F 30.2 °F 81% 28.83 in 0.8 mi WSW 48.3 mph 69.0 mph 0.00 in Snow Light Snow
10:29 AM 35.6 °F 19.3 °F 30.2 °F 81% 28.83 in 0.2 mi WSW 51.8 mph 69.0 mph 0.00 in Fog , Snow Snow
11:01 AM 32.0 °F 13.9 °F 30.0 °F 92% 29.13 in 0.2 mi WSW 54.1 mph 72.5 mph 0.00 in Fog , Snow Heavy Snow
11:17 AM 30.2 °F 10.8 °F 28.4 °F 93% 28.86 in 0.2 mi WSW 57.5 mph 74.8 mph 0.00 in Fog , Snow Heavy Snow
12:01 PM 30.0 °F 10.9 °F 28.0 °F 92% 29.23 in 0.2 mi WSW 55.2 mph 67.9 mph 0.00 in Fog , Snow Heavy Snow
12:25 PM 30.2 °F 13.1 °F 26.6 °F 86% 29.01 in 0.2 mi WSW 41.4 mph 65.6 mph 0.00 in Fog , Snow Snow
12:43 PM 28.4 °F 10.0 °F 26.6 °F 93% 29.03 in 0.2 mi WSW 44.9 mph 62.1 mph 0.00 in Fog , Snow Heavy Snow
1:01 PM 28.9 °F 10.6 °F 27.0 °F 92% 29.32 in 0.2 mi WSW 46.0 mph 80.6 mph 0.00 in Fog , Snow Snow
1:30 PM 30.2 °F 14.1 °F 26.6 °F 86% 29.09 in 0.2 mi WSW 35.7 mph 56.4 mph 0.01 in Fog , Snow Heavy Snow
2:24 PM 30.2 °F 13.7 °F 26.6 °F 86% 29.11 in 0.5 mi West 38.0 mph 55.2 mph 0.01 in Snow Snow
3:01 PM 30.9 °F 16.4 °F 27.0 °F 85% 29.48 in 0.5 mi WSW 28.8 mph 51.8 mph 0.01 in Fog , Snow Light Snow
3:16 PM 30.2 °F 15.7 °F 26.6 °F 86% 29.20 in 0.5 mi West 27.6 mph 39.1 mph 0.00 in Fog , Snow Light Snow
3:23 PM 30.2 °F 18.1 °F 26.6 °F 86% 29.20 in 0.8 mi WNW 18.4 mph 39.1 mph 0.00 in Snow Light Snow
4:07 PM 32.0 °F 26.4 °F 26.6 °F 80% 29.26 in 1.2 mi Variable 5.8 mph 29.9 mph 0.00 in Snow Light Snow
4:18 PM 33.8 °F 23.9 °F 26.6 °F 75% 29.26 in 2.0 mi West 15.0 mph 27.6 mph 0.00 in Snow Light Snow
4:34 PM 33.8 °F 23.5 °F 26.6 °F 75% 29.26 in 1.8 mi WSW 16.1 mph 31.1 mph 0.00 in Rain Rain
4:50 PM 33.8 °F 22.8 °F 26.6 °F 75% 29.26 in 2.0 mi WSW 18.4 mph 27.6 mph 0.00 in   Overcast
5:01 PM 33.1 °F 23.9 °F 27.0 °F 78% 29.54 in 2.0 mi SW 12.7 mph 32.2 mph 0.00 in Rain Light Rain
5:32 PM 33.8 °F 24.8 °F 26.6 °F 75% 29.28 in 4.0 mi West 12.7 mph 36.8 mph 0.00 in Rain Light Rain
7:01 PM 34.0 °F 26.6 °F 28.0 °F 79% 29.55 in 10.0 mi South 9.2 mph 24.2 mph 0.00 in Rain Light Rain
8:01 PM 33.8 °F - 28.4 °F 81% 29.25 in 10.0 mi Calm Calm - 0.00 in   Mostly Cloudy
8:18 PM 34.0 °F 31.0 °F 28.0 °F 79% 29.52 in 10.0 mi SSE 3.5 mph - 0.00 in Rain Light Rain
8:31 PM 33.8 °F - 26.6 °F 75% 29.24 in 10.0 mi Calm Calm - 0.00 in   Overcast
8:39 PM 33.8 °F 30.8 °F 26.6 °F 75% 29.22 in 10.0 mi NE 3.5 mph - 0.00 in   Overcast
9:01 PM 33.1 °F 27.7 °F 28.9 °F 85% 29.48 in 10.0 mi NW 5.8 mph - 0.00 in   Mostly Cloudy
10:01 PM 32.0 °F 23.0 °F 28.9 °F 88% 29.43 in 10.0 mi North 11.5 mph - N/A   Partly Cloudy
11:01 PM 32.0 °F 26.4 °F 28.9 °F 88% 29.39 in 10.0 mi NW 5.8 mph - 0.00 in   Overcast
11:40 PM 32.0 °F 24.8 °F 28.4 °F 87% 29.09 in 10.0 mi North 8.1 mph - N/A   Overcast